Weather reports worldwide

Advertisment
Newton Rigg, United Kingdom (99152): temperature & dewpoint: 18.05.2017 20:00:00 - 24.05.2017 20:00:00 (BST)Newton Rigg, United Kingdom (99152): temperature 5cm: 18.05.2017 20:00:00 - 24.05.2017 20:00:00 (BST)Newton Rigg, United Kingdom (99152): temperature -20cm & temperature -100cm: 18.05.2017 20:00:00 - 24.05.2017 20:00:00 (BST)Newton Rigg, United Kingdom (99152): visibility: 18.05.2017 20:00:00 - 24.05.2017 20:00:00 (BST)Newton Rigg, United Kingdom (99152): precipitation: 18.05.2017 20:00:00 - 24.05.2017 20:00:00 (BST)
Date & Time tt [°C] td [°C] tt 5cm [°C] tt -20cm [°C] tt -100cm [°C] vv [km] rr [mm]
24.05.2017 20:00:00 18,1 12,6 - - - - 0,0
24.05.2017 19:00:00 18,9 12,9 - - - - 0,0
24.05.2017 18:00:00 19,5 13,4 - - - - 0,0
24.05.2017 17:00:00 18,5 13,5 - - - - 0,0
24.05.2017 16:00:00 19,3 14,1 - - - - 0,0
24.05.2017 15:00:00 20,4 15,9 - - - - 0,0
24.05.2017 14:00:00 21,1 15,0 - - - - 0,0
24.05.2017 13:00:00 21,0 15,3 - - - - 0,0
24.05.2017 12:00:00 19,6 13,7 - - - - 0,0
24.05.2017 11:00:00 18,7 13,7 - - - - 0,0
24.05.2017 10:00:00 17,5 13,3 17,5 12,9 11,0 3,1 0,0
24.05.2017 09:00:00 16,1 12,6 - - - - 0,0
24.05.2017 08:00:00 14,8 12,1 - - - - 0,0
24.05.2017 07:00:00 14,2 12,1 - - - - 0,0
24.05.2017 06:00:00 14,2 12,1 - - - - 0,0
24.05.2017 05:00:00 14,5 12,1 - - - - 0,0
24.05.2017 04:00:00 15,0 12,3 - - - - 0,0
24.05.2017 03:00:00 15,0 13,0 - - - - 0,0
24.05.2017 02:00:00 15,1 12,7 - - - - 0,0
24.05.2017 01:00:00 14,7 11,6 - - - - 0,0
24.05.2017 00:00:00 14,7 11,1 - - - - 0,0
23.05.2017 23:00:00 14,6 10,5 - - - - 0,0
23.05.2017 22:00:00 14,9 9,9 - - - - 0,0
23.05.2017 21:00:00 15,5 8,8 - - - - 0,0
23.05.2017 20:00:00 15,5 7,2 - - - - 0,0
23.05.2017 19:00:00 15,8 6,2 - - - - 0,0
23.05.2017 18:00:00 16,3 6,5 - - - - 0,0
23.05.2017 17:00:00 16,9 5,9 - - - - 0,0
23.05.2017 16:00:00 18,1 6,1 - - - - 0,0
23.05.2017 15:00:00 17,5 6,3 - - - - 0,0
23.05.2017 14:00:00 16,4 6,4 - - - - 0,0
23.05.2017 13:00:00 16,4 6,1 - - - - 0,0
23.05.2017 12:00:00 16,4 7,8 - - - - 0,0
23.05.2017 11:00:00 15,2 7,1 - - - - 0,0
23.05.2017 10:00:00 13,2 5,6 14,1 12,2 11,0 10 0,0
23.05.2017 09:00:00 13,5 8,0 - - - - 0,0
23.05.2017 08:00:00 11,4 7,7 - - - - 0,0
23.05.2017 07:00:00 10,5 8,5 - - - - 0,0
23.05.2017 06:00:00 9,2 8,0 - - - - 0,0
23.05.2017 05:00:00 9,0 7,7 - - - - 0,0
23.05.2017 04:00:00 9,6 7,9 - - - - 0,0
23.05.2017 03:00:00 10,4 9,0 - - - - 0,0
23.05.2017 02:00:00 11,0 9,0 - - - - 0,0
23.05.2017 01:00:00 11,8 9,7 - - - - 0,0
23.05.2017 00:00:00 11,8 9,7 - - - - 0,0
22.05.2017 23:00:00 12,9 10,0 - - - - 0,0
22.05.2017 22:00:00 12,9 9,4 - - - - 0,0
22.05.2017 21:00:00 13,5 9,7 - - - - 0,0
22.05.2017 20:00:00 14,6 9,4 - - - - 0,0
22.05.2017 19:00:00 15,6 9,8 - - - - 0,0
22.05.2017 18:00:00 16,7 11,3 - - - - 0,0
22.05.2017 17:00:00 17,5 10,6 - - - - 0,0
22.05.2017 16:00:00 18,6 10,9 - - - - 0,0
22.05.2017 15:00:00 18,9 11,2 - - - - 0,0
22.05.2017 14:00:00 16,9 11,8 - - - - 0,0
22.05.2017 13:00:00 15,3 11,7 - - - - 0,0
22.05.2017 12:00:00 14,6 10,4 - - - - 0,0
22.05.2017 11:00:00 14,5 10,2 - - - - 0,0
22.05.2017 10:00:00 14,7 9,8 - 12,0 11,0 10 0,0
22.05.2017 09:00:00 14,6 9,6 - - - - 0,0
22.05.2017 08:00:00 13,7 8,7 - - - - 0,0
22.05.2017 07:00:00 12,3 7,8 - - - - 0,0
22.05.2017 06:00:00 11,1 7,8 - - - - -
22.05.2017 05:00:00 10,6 7,0 - - - - 0,0
22.05.2017 04:00:00 10,5 6,8 - - - - 0,0
22.05.2017 03:00:00 10,8 6,9 - - - - 0,0
22.05.2017 02:00:00 11,2 6,8 - - - - 0,0
22.05.2017 01:00:00 11,0 6,8 - - - - 0,0
22.05.2017 00:00:00 10,2 6,8 - - - - 0,0
21.05.2017 23:00:00 11,3 7,6 - - - - 0,0
21.05.2017 22:00:00 10,7 7,3 - - - - 0,0
21.05.2017 21:00:00 12,7 8,4 - - - - 0,0
21.05.2017 20:00:00 14,2 8,3 - - - - 0,0
21.05.2017 19:00:00 14,4 7,8 - - - - 0,0
21.05.2017 18:00:00 14,1 7,9 - - - - 0,0
21.05.2017 17:00:00 14,5 7,7 - - - - 0,0
21.05.2017 16:00:00 14,2 7,9 - - - - 0,0
21.05.2017 15:00:00 13,9 8,1 - - - - 0,0
21.05.2017 14:00:00 12,7 8,1 - - - - 0,0
21.05.2017 13:00:00 12,4 8,4 - - - - 0,0
21.05.2017 12:00:00 11,3 7,8 - - - - 0,0
21.05.2017 11:00:00 11,0 9,1 - - - - 0,0
21.05.2017 10:00:00 11,7 8,1 12,2 12,0 10,9 4,3 0,0
21.05.2017 09:00:00 12,1 8,0 - - - - 0,0
21.05.2017 08:00:00 10,6 7,5 - - - - 0,0
21.05.2017 07:00:00 9,3 7,5 - - - - 0,0
21.05.2017 06:00:00 9,4 7,9 - - - - 0,2
21.05.2017 05:00:00 7,9 6,6 - - - - 0,2
21.05.2017 04:00:00 7,7 6,1 - - - - 0,0
21.05.2017 03:00:00 8,0 6,2 - - - - 0,2
21.05.2017 02:00:00 8,6 6,4 - - - - 0,0
21.05.2017 01:00:00 9,2 6,3 - - - - 0,0
21.05.2017 00:00:00 8,9 6,1 - - - - 0,0
20.05.2017 23:00:00 8,6 5,5 - - - - 0,0
20.05.2017 22:00:00 9,1 5,5 - - - - 0,0
20.05.2017 21:00:00 10,0 5,0 - - - - 0,0
20.05.2017 20:00:00 11,3 4,7 - - - - 0,0
20.05.2017 19:00:00 12,2 5,2 - - - - 0,0
20.05.2017 18:00:00 11,7 6,0 - - - - 0,0
20.05.2017 17:00:00 11,8 6,5 - - - - 0,0
20.05.2017 16:00:00 11,3 6,4 - - - - 0,0
20.05.2017 15:00:00 11,1 6,4 - - - - 0,0
20.05.2017 14:00:00 11,1 6,4 - - - - 0,0
20.05.2017 13:00:00 10,6 6,3 - - - - 0,0
20.05.2017 12:00:00 11,5 5,5 - - - - 0,0
20.05.2017 11:00:00 11,4 6,2 - - - - 0,0
20.05.2017 10:00:00 11,3 6,2 11,8 12,2 10,7 3,5 0,0
20.05.2017 09:00:00 10,5 6,0 - - - - 0,0
20.05.2017 08:00:00 9,4 6,6 - - - - 0,0
20.05.2017 07:00:00 7,5 7,0 - - - - 0,0
20.05.2017 06:00:00 5,7 5,0 - - - - 0,0
20.05.2017 05:00:00 6,6 5,8 - - - - 0,0
20.05.2017 04:00:00 7,2 5,9 - - - - 0,0
20.05.2017 03:00:00 7,5 6,0 - - - - 0,0
20.05.2017 02:00:00 7,4 6,4 - - - - 0,0
20.05.2017 01:00:00 7,6 6,4 - - - - 0,0
20.05.2017 00:00:00 7,8 6,5 - - - - 0,0
19.05.2017 23:00:00 8,3 6,9 - - - - 0,0
19.05.2017 22:00:00 8,6 6,5 - - - - 0,0
19.05.2017 21:00:00 10,1 6,8 - - - - 0,0
19.05.2017 20:00:00 10,7 6,6 - - - - 0,0
19.05.2017 19:00:00 11,6 7,0 - - - - 0,0
19.05.2017 18:00:00 12,4 6,3 - - - - 0,0
19.05.2017 17:00:00 13,1 6,1 - - - - 0,0
19.05.2017 16:00:00 14,3 4,3 - - - - 0,0
19.05.2017 15:00:00 14,5 3,4 - - - - 0,0
19.05.2017 14:00:00 14,5 5,0 - - - - 0,0
19.05.2017 13:00:00 13,5 5,9 - - - - 0,0
19.05.2017 12:00:00 13,0 6,7 - - - - 0,0
19.05.2017 11:00:00 12,5 6,6 - - - - 0,0
19.05.2017 10:00:00 11,1 5,8 11,6 12,0 10,7 0,8 0,0
19.05.2017 09:00:00 10,2 6,0 - - - - 0,0
19.05.2017 08:00:00 8,3 6,1 - - - - 0,0
19.05.2017 07:00:00 6,0 5,6 - - - - 0,0
19.05.2017 06:00:00 4,6 4,3 - - - - 0,0
19.05.2017 05:00:00 4,4 4,1 - - - - 0,0
19.05.2017 04:00:00 3,9 3,5 - - - - 0,0
19.05.2017 03:00:00 3,7 2,6 - - - - 0,0
19.05.2017 02:00:00 5,4 4,6 - - - - 0,0
19.05.2017 01:00:00 6,1 5,2 - - - - 0,0
19.05.2017 00:00:00 6,9 5,4 - - - - 0,0
18.05.2017 23:00:00 7,6 5,3 - - - - 0,0
18.05.2017 22:00:00 9,2 5,6 - - - - 0,0
18.05.2017 21:00:00 10,5 5,5 - - - - 0,0
18.05.2017 20:00:00 12,1 4,4 - - - - 0,0

tt = temperature
td = dewpoint
tt 5cm = temperature 5cm
tt -20cm = temperature -20cm
tt -100cm = temperature -100cm
vv = visibility
rr = precipitation

Next stations